Location: Stockholm
(59.3330°N, 18.0500°E)
Time: 14:20:15
(UTC+01:00)

Envisat - Pass Details

Date: 07 December 2022
Orbit: 763 x 765 km, 98.2° (Epoch: 29 January)

Event Time Altitude Azimuth Distance (km) Brightness Sun altitude
Rises 02:47:27 0° 22° (NNE) 3,249 6.8 -40.6°
Reaches altitude 10° 02:50:24 10° 39° (NE) 2,317 6.1 -40.3°
Enters shadow 02:53:17 19° 73° (ENE) 1,760 5.4 -39.9°
